Regional Weather Roundup
Issued by NWS

Home | Current Version | Previous Version | Text Only | Print | Product List | Glossary Off
Versions: 1 2 3 4 5 6 7 8 9 10 11 12 13 14 15 16 17 18 19 20 21 22 23 24 25 26 27 28 29 30 31 32 33 34 35 36 37 38 39 40 41 42 43 44 45 46 47 48 49 50

133
ASUS43 KIND 211409
RWRIN

WEATHER ROUNDUP FOR INDIANA
NATIONAL WEATHER SERVICE INDIANAPOLIS IN
1000 AM EDT THU MAY 21 2015

NOTE: "FAIR" INDICATES FEW OR NO CLOUDS BELOW 12,000 FEET WITH NO
SIGNIFICANT WEATHER AND/OR OBSTRUCTIONS TO VISIBILITY.

* - STATION DOES NOT REPORT WEATHER SUCH AS PRECIPITATION OR FOG.

+ - STATION NOT QUALITY CONTROLLED BY THE NATIONAL WEATHER SERVICE.
    USE DATA WITH CAUTION...ESPECIALLY DEWPOINT AND RELATIVE
    HUMIDITY OBSERVATIONS.

INZ001>003-010>013-019-020-211500-
NORTHWEST INDIANA

CITY           SKY/WX    TMP DP  RH WIND       PRES   REMARKS
GARY /AIRPORT/ CLOUDY    50  41  71 W12       30.12S
KNOX *+        CLOUDY    46  43  87 W7        30.11S
LA PORTE +     CLOUDY    50  43  76 W8        30.12R
MICHIGAN CITY+ CLOUDY    48  39  71 W8        30.12S
MONTICELLO +   CLOUDY    47  42  82 NW7       30.13R
RENSSELAER +   CLOUDY    48  43  81 W7        30.14S
VALPARAISO     CLOUDY    49  41  74 W10       30.12S

$$

LMZ046-743>745-211500-
SOUTHERN LAKE MICHIGAN

STATION/POSITION TIME  TEMP    WIND        PRES    WAVE
                       AIR SEA DIR/SP/G            HT
                 (UTC) (F)     (DEG/KT/KT) (MB)    (FT)
BURNS HARBOR     1400   49     280/ 12/ 14 1020.3S
MICHIGAN CITY    1400   47     240/ 14/ 16   N/A
5NW MICH CITY    1400   47 50  280/  8/ 10   N/A     1

$$

INZ004-005-014>016-021>024-211500-
NORTH CENTRAL INDIANA

CITY           SKY/WX    TMP DP  RH WIND       PRES   REMARKS
ELKHART        CLOUDY    48  41  76 W9        30.10R
GOSHEN         CLOUDY    48  41  76 W6        30.09S
LOGANSPORT +   CLOUDY    46  36  66 NW6       30.13S
PERU/GRISSOM   CLOUDY    47  40  74 NW7       30.10S
ROCHESTER +    CLOUDY    50  41  71 NW8       30.11S
SOUTH BEND     CLOUDY    49  42  77 W12       30.11R
WARSAW +       CLOUDY    46  39  76 NW3       30.10S

$$

INZ006>009-017-018-025>027-211500-
NORTHEAST INDIANA

CITY           SKY/WX    TMP DP  RH WIND       PRES   REMARKS
ANGOLA *+      CLOUDY    46  39  76 W5        30.07S
AUBURN +       CLOUDY    46  36  66 CALM      30.09R
FORT WAYNE     CLOUDY    50  38  63 NW10      30.09S
HUNTINGTON +   CLOUDY    49  38  66 N3        30.09S

$$

INZ028-029-035-036-043>045-051>053-211500-
WEST CENTRAL INDIANA

CITY           SKY/WX    TMP DP  RH WIND       PRES   REMARKS
CRAWFORDSVL +  CLOUDY    43  36  75 NW7       30.14R
GREENCASTLE +  CLOUDY    45  39  81 N9        30.13S HAZE
LAFAYETTE      CLOUDY    47  42  83 NW5       30.14S
TERRE HAUTE    CLOUDY    47  41  80 N8        30.15R

$$

INZ030>032-037>040-046>048-054>057-064-065-211500-
CENTRAL INDIANA

CITY           SKY/WX    TMP DP  RH WIND       PRES   REMARKS
CP ATTERBURY + CLOUDY    50  43  76 NW9       30.10S
COLUMBUS       CLOUDY    50  43  76 N10       30.09S
FISHERS *+     CLOUDY    46  45  93 NW6       30.11R
FRANKFORT +    DRIZZLE   46  46 100 NW7       30.14S
GREENWOOD *+   CLOUDY    50  39  66 N8        30.10S
INDIANAPOLIS   CLOUDY    49  42  77 N10       30.09S
-EAGLE CREEK   CLOUDY    48  43  82 NW9       30.10S
KOKOMO *+        N/A     48  37  66 NW9       30.12R
MARION +       CLOUDY    47  37  67 N8        30.11S
MT COMFORT *+  PTSUNNY   50  41  71 NW10      30.10S
SHELBYVILLE    CLOUDY    53  40  61 N9        30.08S
ZIONSVILLE +   CLOUDY    47  39  72 N9        30.12S

$$

INZ033-034-041-042-049-050-058-059-211500-
EAST CENTRAL INDIANA

CITY           SKY/WX    TMP DP  RH WIND       PRES   REMARKS
MUNCIE         CLOUDY    50  44  80 NW8       30.09R

$$

INZ060-061-067>069-081>083-085>088-211500-
SOUTHWEST INDIANA

CITY           SKY/WX    TMP DP  RH WIND       PRES   REMARKS
EVANSVILLE     CLOUDY    51  44  77 NW6       30.15R HAZE
HUNTINGBURG *+ CLOUDY    48  43  81 NW12      30.13R
WASHINGTON +   CLOUDY    48  44  87 NW9       30.13S FOG

$$

INZ062-063-066-070>080-084-089>092-211500-
SOUTH CENTRAL AND SOUTHEAST INDIANA

CITY           SKY/WX    TMP DP  RH WIND       PRES   REMARKS
BLOOMINGTON    CLOUDY    50  44  80 VRB6      30.11R
MADISON *+     CLOUDY    52  45  76 NW6       30.09R
NORTH VERNON + CLOUDY    50  45  81 NW9       30.09R
SEYMOUR +      CLOUDY    54  43  66 N9        30.09R

$$




USA.gov is the U.S. government's official web portal to all federal, state and local government web resources and services.